Home > Weather > Laredo > Past weeks

Flag for USA Past Weather in Laredo, Texas, USA — Yesterday and Last 2 Weeks

Now
92 °F

Mostly cloudy.


Feels Like: 100 °F
Forecast: 79 / 95 °F
Wind: 6 mph from Southeast

Location: Laredo International Airport

Current Time: Jul 28, 2016 at 1:30:50 PM

Latest Report: Jul 28, 2016 at 12:56 PM


Visibility: 10 mi

Pressure: 29.94 "Hg

Humidity: 52%

Dew Point: 72 °F

Location of LaredoLocation

Past Weather in Laredo — Graph

°F

Laredo Temperature Yesterday

Maximum temperature yesterday: 95 °F (at 2:56 PM)
Minimum temperature yesterday: 77 °F (at 2:56 AM)
Average temperature yesterday: 85 °F

High & Low Weather Summary for the Past Weeks

 TemperatureHumidityPressure
High107 °F (Jul 15, 4:56 PM)94% (Jul 27, 2:56 AM)30.16 "Hg (Jul 27, 2:56 AM)
Low75 °F (Jul 21, 6:56 AM)15% (Jul 15, 4:56 PM)29.78 "Hg (Jul 24, 5:56 PM)
Average89 °F58%29.96 "Hg
* Reported Jul 13 11:56 AM — Jul 28 11:56 AM, Laredo, Weather by CustomWeather, © 2016

Note: Actual official high and low records may vary slightly from our data, if they occured in-between our weather recording intervals... More about our weather records

Advertising

Laredo Weather History for the Previous 24 Hours

Scroll right to see more
 ConditionsComfort  
Time TempWeatherWind HumidityBarometerVisibility
11:56 AM
Thu, Jul 28
91 °FPartly sunny.9 mph57%29.96 "Hg10 mi
10:56 AM88 °FPassing clouds.14 mph63%29.96 "Hg10 mi
9:56 AM85 °FPassing clouds.12 mph72%29.97 "Hg10 mi
8:56 AM83 °FSunny.12 mph79%29.96 "Hg10 mi
7:56 AM80 °FClear.6 mph85%29.95 "Hg10 mi
6:56 AM80 °FClear.9 mph85%29.93 "Hg10 mi
5:56 AM81 °FClear.9 mph79%29.91 "Hg10 mi
4:56 AM80 °FClear.9 mph81%29.91 "Hg10 mi
3:56 AM81 °FPassing clouds.9 mph77%29.91 "Hg10 mi
2:56 AM82 °FOvercast.12 mph72%29.92 "Hg10 mi
1:56 AM84 °FPassing clouds.14 mph65%29.92 "Hg10 mi
12:56 AM84 °FPassing clouds.8 mph63%29.93 "Hg10 mi
11:56 PM
Wed, Jul 27
84 °FClear.6 mph65%29.92 "Hg10 mi
10:56 PM85 °FPassing clouds.5 mph63%29.91 "Hg10 mi
9:56 PM87 °FClear.8 mph55%29.88 "Hg10 mi
8:56 PM89 °FPassing clouds.7 mph52%29.86 "Hg10 mi
7:56 PM92 °FSunny.5 mph46%29.85 "Hg10 mi
6:56 PM93 °FSunny.6 mph44%29.86 "Hg7 mi
5:56 PM93 °FSunny.7 mph44%29.88 "Hg10 mi
4:56 PM95 °FSunny.16 mph44%29.88 "Hg10 mi
3:56 PM94 °FScattered clouds.17 mph44%29.89 "Hg10 mi
2:56 PM95 °FSunny.20 mph43%29.90 "Hg10 mi
1:56 PM93 °FPartly sunny.15 mph50%29.93 "Hg10 mi
Weather by CustomWeather, © 2016

See weather overviewHow to use our weather pages